Simultaneous Nadir Overpasses (SNOs) Predictions

Prediction of SNOs between GOES-15 and NOAA-20 Satellite Orbit:

Table of predicted SNOs for the next 14.0 days since TLE Epoch: 3/2/2024
Index Date Time (GOES-15) GOES-15 Lat,Lon NOAA-20 Lat,Lon Distance(km) Time Diff (sec)
1 03/02/2024 21:27:09 0.04, 61.24 0.30, 59.94 147.17 80
2 03/03/2024 21:05:43 0.04, 61.24 -0.67, 64.48 369.78 80
3 03/05/2024 09:27:39 -0.05, 61.31 -0.51, 59.18 242.26 80
4 03/06/2024 09:11:34 -0.05, 61.31 0.48, 63.72 274.46 80
5 03/07/2024 21:33:21 0.06, 61.24 0.69, 58.45 317.16 80
6 03/08/2024 21:11:57 0.06, 61.24 -0.36, 62.98 199.29 80
7 03/10/2024 09:36:32 -0.06, 61.32 -0.87, 57.69 413.39 80
8 03/11/2024 09:15:07 -0.06, 61.32 0.12, 62.23 103.09 80
9 03/12/2024 21:39:34 0.06, 61.25 1.04, 56.96 488.83 80
10 03/13/2024 21:18:09 0.06, 61.25 -0.01, 61.49 27.34 80
